[TLELIST] Archives

 

[list_settings.list_name] Current TLEs

March 6th 2014 PST

HST 1 20580U 90037B 14065.15801595 .00004227 00000-0 27997-3 0 4520 2 20580 028.4713 354.1815 0002970 267.1643 195.2025 15.04836657109173 ISS (ZARYA) 1 25544U 98067A 14065.36326021 .00022900 00000-0 39201-3 0 8214 2 25544 051.6476 249.2804 0003302 214.0242 215.7852 15.51134586875372 CXO 1 25867U 99040B 14067.39683828 .00000356 00000-0 00000+0 0 23 2 25867 076.6308 325.2719 8249520 275.3099 000.2342 00.37802150 11531 ____________________________________________________________________ These 2-Line ...Continue Reading

[list_settings.list_name] Current TLEs

March 5th 2014 PST

HST 1 20580U 90037B 14063.88760056 .00004210 00000-0 27892-3 0 4519 2 20580 028.4714 002.5245 0002968 252.1799 154.2649 15.04823820108981 ISS (ZARYA) 1 25544U 98067A 14064.28426302 .00022378 00000-0 38399-3 0 8145 2 25544 051.6475 254.6337 0003547 207.9999 312.7082 15.51082089875208 CXO 1 25867U 99040B 14067.39683828 .00000356 00000-0 00000+0 0 23 2 25867 076.6308 325.2719 8249520 275.3099 000.2342 00.37802150 11531 ____________________________________________________________________ These 2-Line ...Continue Reading

[list_settings.list_name] Current TLEs

March 4th 2014 PST

HST 1 20580U 90037B 14062.31125973 .00004882 00000-0 32544-3 0 4503 2 20580 028.4715 012.8769 0002915 235.4196 254.5936 15.04809631108756 ISS (ZARYA) 1 25544U 98067A 14063.11361230 .00023835 00000-0 40911-3 0 8067 2 25544 051.6479 260.4419 0003322 206.6302 253.0871 15.51034134875024 CXO 1 25867U 99040B 14064.75359487 .00000208 00000-0 00000+0 0 16 2 25867 076.6234 325.4087 8252443 275.3436 000.3633 00.37803569 11520 ____________________________________________________________________ These 2-Line ...Continue Reading

[list_settings.list_name] Current TLEs

March 3rd 2014 PST

HST 1 20580U 90037B 14061.18207264 .00005135 00000-0 34305-3 0 4498 2 20580 028.4717 020.2911 0003138 221.0327 259.7718 15.04799347108583 ISS (ZARYA) 1 25544U 98067A 14062.46798220 .00024998 00000-0 42902-3 0 8015 2 25544 051.6472 263.6453 0003505 203.3773 248.9956 15.51008377874924 CXO 1 25867U 99040B 14064.75359487 .00000208 00000-0 00000+0 0 16 2 25867 076.6234 325.4087 8252443 275.3436 000.3633 00.37803569 11520 ____________________________________________________________________ These 2-Line ...Continue Reading

[list_settings.list_name] Current TLEs

March 2nd 2014 PST

HST 1 20580U 90037B 14061.18207264 .00005135 00000-0 34305-3 0 4498 2 20580 028.4717 020.2911 0003138 221.0327 259.7718 15.04799347108583 ISS (ZARYA) 1 25544U 98067A 14061.50217461 .00025785 00000-0 44296-3 0 7935 2 25544 051.6476 268.4366 0003568 195.6098 260.5790 15.50961623874776 CXO 1 25867U 99040B 14062.11063025 .00000192 00000-0 00000+0 0 05 2 25867 076.6268 325.5104 8256326 275.3928 000.5298 00.37802609 11510 ____________________________________________________________________ These 2-Line ...Continue Reading

[list_settings.list_name] Current TLEs

March 1st 2014 PST

HST 1 20580U 90037B 14060.04724947 .00004631 00000-0 30834-3 0 4486 2 20580 028.4715 027.7436 0003106 208.4008 232.6460 15.04785559108400 ISS (ZARYA) 1 25544U 98067A 14060.40116468 .00030477 00000-0 52274-3 0 7870 2 25544 051.6470 273.9007 0003524 192.7816 232.0188 15.50913457874600 CXO 1 25867U 99040B 14062.11063025 .00000192 00000-0 00000+0 0 05 2 25867 076.6268 325.5104 8256326 275.3928 000.5298 00.37802609 11510 ____________________________________________________________________ These 2-Line ...Continue Reading

[list_settings.list_name] Current TLEs

February 28th 2014 PST

HST 1 20580U 90037B 14056.20236285 .00003552 00000-0 23393-3 0 4452 2 20580 028.4710 052.9924 0003236 166.6181 284.9809 15.04746348107823 ISS (ZARYA) 1 25544U 98067A 14059.39249108 .00019182 00000-0 33330-3 0 7797 2 25544 051.6481 278.9052 0003676 180.2795 009.1777 15.50833840874449 CXO 1 25867U 99040B 14062.11063025 .00000192 00000-0 00000+0 0 05 2 25867 076.6268 325.5104 8256326 275.3928 000.5298 00.37802609 11510 ____________________________________________________________________ These 2-Line ...Continue Reading

[list_settings.list_name] Current TLEs

February 27th 2014 PST

HST 1 20580U 90037B 14056.20236285 .00003552 00000-0 23393-3 0 4452 2 20580 028.4710 052.9924 0003236 166.6181 284.9809 15.04746348107823 ISS (ZARYA) 1 25544U 98067A 14058.46855126 .00016749 00000-0 29256-3 0 7717 2 25544 051.6501 283.4858 0003956 180.3924 247.3447 15.50789403874303 CXO 1 25867U 99040B 14059.46340753 .00000382 00000-0 00000+0 0 9993 2 25867 076.6244 325.6159 8263722 275.4286 000.1837 00.37808716 11500 ____________________________________________________________________ These 2-Line ...Continue Reading

[list_settings.list_name] Current TLEs

February 26th 2014 PST

HST 1 20580U 90037B 14056.20236285 .00003552 00000-0 23393-3 0 4452 2 20580 028.4710 052.9924 0003236 166.6181 284.9809 15.04746348107823 ISS (ZARYA) 1 25544U 98067A 14057.25106718 .00015552 00000-0 27269-3 0 7611 2 25544 051.6500 289.5226 0003973 176.3852 289.9250 15.50743424874118 CXO 1 25867U 99040B 14059.46538215 .00000382 00000-0 00000+0 0 9984 2 25867 076.6242 325.6157 8263819 275.4301 000.4524 00.37804974 11509 ____________________________________________________________________ These 2-Line ...Continue Reading

[list_settings.list_name] Current TLEs

February 25th 2014 PST

HST 1 20580U 90037B 14056.20236285 .00003552 00000-0 23393-3 0 4452 2 20580 028.4710 052.9924 0003236 166.6181 284.9809 15.04746348107823 ISS (ZARYA) 1 25544U 98067A 14056.28443439 .00015361 00000-0 26974-3 0 7527 2 25544 051.6501 294.3169 0004003 172.6525 293.7454 15.50711686873966 CXO 1 25867U 99040B 14056.81918468 .00000542 00000-0 00000+0 0 9968 2 25867 076.6129 325.7610 8270553 275.4323 000.3375 00.37804087 11491 ____________________________________________________________________ These 2-Line ...Continue Reading
  • This mailing list is a public mailing list - anyone may join or leave, at any time.
  • This mailing list is announce-only.

International Space Station (ISS) / Hubble Space Telescope (HST) / Chandra X-Ray Observatory Orbital Data via EMAIL

Privacy Policy:

Private list